SCP
0 0 0 0 -0 -0 -0 -0 0 0 0 -0 0 -0 -0 0 0 0 0 0 0 0 0 0 0 0 0 0 0 0 0 0 0
0 0 0 0 0 -0 -0 -0 -0 0 0 0 -0 -0 0 0 0 0 0 0 0 0 0 0 0 0 0 0 0 0 0 0 0
0 0 0 0 0 0 -0 -0 -0 -0 -0 -0 -0 -0 -0 -0 -0 -0 0 0 0 0 0 0 0 0 0 0 0 0 0 0 0
0 0 0 0 0 0 0 0 0 0 -0 -0 -0 -0 0 0 0 0 0 0 0 0 0 0 0 0 0 0 0 0 0 0 0
0 0 0 0 0 0 0 1 1 1 0 -0 -0 -0 0 0 0 0 0 0 0 0 0 0 0 0 0 0 0 0 0 0 0
-0 0 0 0 -0 0 0 1 1 1 1 0 0 0 0 0 0 0 0 0 0 0 0 0 0 0 0 0 0 0 0 0 0
0 0 0 0 0 0 0 0 1 1 1 1 1 1 1 0 0 0 0 0 0 0 0 0 0 0 0 0 0 0 0 0 0
0 0 -0 0 0 0 0 0 1 1 2 1 1 1 1 1 1 0 0 0 0 0 0 0 0 0 0 0 0 0 0 0 0
0 0 -0 -0 0 0 0 0 1 1 2 2 2 2 2 1 0 0 0 0 0 0 0 0 0 0 0 0 0 0 0 0 0
0 0 -0 -0 -0 0 0 1 1 2 2 2 2 1 1 0 0 0 0 0 0 0 0 0 0 0 0 0 0 0 0 0 0
1 0 0 0 0 -0 0 1 2 0 0 0 0 0 0 0 0 0 0 0 0 0 0 0 0 0 0 0 0 0 0 0 0
0 0 0 0 0 0 0 0 0 0 0 0 0 0 0 0 0 0 0 0 0 0 0 0 0 0 0 0 0 0 0 0 0
0 0 0 0 0 0 0 0 0 0 0 0 0 0 0 0 0 0 0 0 0 0 0 0 0 0 0 0 0 0 0 0 0
0 0 0 0 0 0 0 0 0 0 0 0 0 0 0 0 0 0 0 0 0 0 0 0 0 0 0 0 0 0 0 0 0
0 0 0 0 0 0 0 0 0 0 0 0 0 0 0 0 0 0 0 0 0 0 0 0 0 0 0 0 0 0 0 0 0
0 0 0 0 0 0 0 0 0 0 0 0 0 0 0 0 0 0 0 0 0 0 0 0 0 0 0 0 0 0 0 0 0
0 0 0 0 0 0 0 0 0 0 0 0 0 0 0 0 0 0 0 -0 0 -0 0 0 0 0 -0 0 0 0 0 0 0
0 0 0 0 0 0 0 0 0 0 0 0 0 0 0 0 0 0 0 0 -0 0 0 0 -0 0 0 0 0 0 0 0 0
0 0 0 0 0 0 0 0 0 0 0 0 0 0 0 0 0 0 -0 -0 0 -0 -0 -0 0 0 0 0 0 0 0 0 0
0 0 0 0 0 0 0 0 0 0 0 0 0 0 0 0 0 0 0 -0 0 0 0 0 0 0 0 0 0 0 0 0 0
Wind_Speed_500mb
27 33 46 50 66 77 70 58 55 64 77 61 45 55 53 48 41 38 32 26 23 22 22 22 22 19 19 20 17 13 14 17 17
23 28 36 42 48 68 75 64 57 63 64 64 56 38 46 46 44 44 37 29 26 25 24 23 19 18 17 17 14 11 12 15 17
8 14 25 30 40 52 72 70 57 59 56 60 56 46 44 42 47 44 39 34 29 26 24 20 18 17 16 13 9 7 8 11 12
18 17 18 21 29 41 50 68 58 54 52 57 58 49 50 46 50 49 44 40 35 31 27 23 19 16 14 8 4 5 5 4 4
20 18 18 19 21 30 46 62 59 53 51 54 53 49 50 46 51 52 49 45 40 35 30 25 21 18 14 11 8 5 4 4 3
23 22 24 24 27 32 40 51 58 55 51 53 48 49 49 48 51 51 50 43 38 36 33 28 25 19 17 15 10 8 7 9 6
24 24 23 23 29 37 41 48 57 56 53 54 52 52 52 52 56 54 47 42 43 38 35 32 27 23 21 18 15 12 10 9 6
18 25 27 30 28 36 43 48 54 58 59 59 55 55 53 51 54 54 50 45 43 42 40 36 31 29 25 22 16 14 14 13 13
5 10 20 20 25 34 40 47 55 58 60 62 60 58 58 54 54 53 52 49 44 42 42 38 36 34 28 24 20 18 17 17 15
18 18 19 26 24 30 39 49 54 61 63 67 66 63 64 58 55 47 51 53 55 47 43 40 38 36 32 26 23 21 19 17 17
33 26 24 23 23 25 35 44 55 56 65 66 66 66 61 32 19 22 48 79 66 52 46 39 37 36 33 29 26 25 23 19 19
27 29 32 35 36 31 29 33 45 49 54 58 57 61 49 38 57 73 84 92 76 60 57 47 36 35 34 30 27 26 23 20 17
14 21 26 30 34 35 22 19 37 41 42 41 38 32 33 46 49 53 65 78 58 46 57 46 34 34 33 30 27 24 20 17 13
17 21 21 22 22 20 11 11 27 38 39 30 18 33 40 37 38 44 63 79 78 74 73 57 48 35 32 31 27 28 24 18 10
13 14 17 18 19 18 13 5 17 22 9 16 21 18 16 22 27 31 36 51 77 78 77 63 50 45 36 33 33 30 26 21 15
6 10 13 13 11 12 7 1 9 14 10 8 12 15 19 19 26 36 40 5 59 84 78 61 34 32 36 40 31 23 19 18 20
9 13 16 22 23 21 23 21 16 7 9 13 7 5 7 13 21 28 29 33 34 36 35 31 26 24 33 29 21 14 18 21 23
22 22 21 16 16 15 11 4 10 14 11 13 2 9 7 7 13 17 20 22 25 25 26 21 26 26 21 17 13 14 15 17 20
20 17 16 15 18 16 16 15 14 16 15 14 10 8 8 10 18 21 22 20 19 19 20 20 17 15 14 14 15 15 15 18 21
15 11 13 12 14 17 19 14 16 17 17 15 11 23 23 22 18 19 15 15 14 11 9 8 8 14 16 19 21 23 22 26 28
Wind_Direction_500mb
212 235 233 225 222 222 221 228 232 229 224 233 232 229 231 235 240 239 243 247 258 259 272 279 284 280 286 297 300 277 253 245 251
246 233 223 225 226 226 222 227 234 235 237 235 238 227 219 232 235 230 237 247 245 257 270 273 269 272 282 300 299 279 251 238 240
253 208 213 222 221 227 225 229 233 237 240 236 237 237 231 239 225 227 235 241 245 262 267 263 259 267 276 288 288 275 255 248 251
227 216 197 204 218 227 227 225 229 234 238 229 231 235 232 235 226 231 237 244 253 256 252 250 246 259 264 261 259 273 249 244 258
238 216 215 216 218 223 223 226 229 232 236 228 232 235 235 239 234 236 239 245 243 241 245 249 248 254 233 225 221 221 197 193 220
237 232 215 216 229 227 228 231 230 232 229 227 233 234 237 242 237 240 249 250 245 246 246 242 239 234 228 224 220 209 187 171 168
239 231 224 230 241 240 234 235 234 234 230 232 235 235 233 234 230 231 238 246 248 251 251 242 235 230 224 221 220 222 207 210 221
256 245 250 243 253 253 245 241 237 237 235 233 235 236 237 241 241 240 240 230 237 246 250 241 231 227 228 224 223 231 227 235 245
50 271 269 286 270 266 258 247 246 241 237 236 233 234 235 234 236 238 245 246 242 243 245 238 233 232 233 235 236 233 230 243 250
43 31 1 341 325 301 290 273 254 247 240 235 233 228 229 229 229 233 247 245 241 234 238 236 236 236 238 241 246 242 239 240 258
54 46 36 22 358 328 296 283 268 250 243 237 233 230 223 192 192 241 289 275 248 226 221 235 240 241 242 247 246 246 248 251 261
33 26 17 6 354 349 326 284 269 255 240 239 234 232 218 236 247 268 258 260 253 221 213 211 238 243 247 247 245 246 246 250 253
31 28 15 5 358 354 343 263 236 227 214 205 196 207 246 275 279 251 259 249 232 222 219 211 215 241 247 243 240 238 242 242 244
47 32 15 5 356 352 338 238 203 187 194 197 252 298 304 302 300 281 250 250 243 238 217 230 216 233 249 246 239 233 237 215 204
39 17 9 12 26 38 64 138 191 193 297 329 328 326 327 342 349 332 298 256 242 232 218 203 211 215 238 244 238 234 224 211 216
21 30 32 20 32 46 59 245 263 272 98 75 46 26 35 33 33 29 15 298 206 193 191 185 180 205 230 234 227 214 215 228 241
81 72 70 78 80 79 94 100 112 50 25 28 8 82 41 35 22 40 49 85 105 124 146 158 150 205 215 208 213 236 258 256 259
105 94 85 73 63 79 95 45 309 300 309 324 125 135 114 43 10 12 48 78 85 95 108 120 165 182 191 201 198 215 245 256 257
120 89 80 73 71 67 66 47 62 67 71 62 70 84 67 76 87 75 83 95 116 123 135 149 168 188 202 217 228 247 275 281 278
135 97 99 93 82 72 78 76 81 83 82 78 76 85 69 103 98 81 82 93 102 118 137 168 219 245 250 259 270 278 285 288 289
Wind_Speed_850mb
27 33 46 50 66 77 70 58 55 64 77 61 45 55 53 48 41 38 32 26 23 22 22 22 22 19 19 20 17 13 14 17 17
23 28 36 42 48 68 75 64 57 63 64 64 56 38 46 46 44 44 37 29 26 25 24 23 19 18 17 17 14 11 12 15 17
8 14 25 30 40 52 72 70 57 59 56 60 56 46 44 42 47 44 39 34 29 26 24 20 18 17 16 13 9 7 8 11 12
18 17 18 21 29 41 50 68 58 54 52 57 58 49 50 46 50 49 44 40 35 31 27 23 19 16 14 8 4 5 5 4 4
20 18 18 19 21 30 46 62 59 53 51 54 53 49 50 46 51 52 49 45 40 35 30 25 21 18 14 11 8 5 4 4 3
23 22 24 24 27 32 40 51 58 55 51 53 48 49 49 48 51 51 50 43 38 36 33 28 25 19 17 15 10 8 7 9 6
24 24 23 23 29 37 41 48 57 56 53 54 52 52 52 52 56 54 47 42 43 38 35 32 27 23 21 18 15 12 10 9 6
18 25 27 30 28 36 43 48 54 58 59 59 55 55 53 51 54 54 50 45 43 42 40 36 31 29 25 22 16 14 14 13 13
5 10 20 20 25 34 40 47 55 58 60 62 60 58 58 54 54 53 52 49 44 42 42 38 36 34 28 24 20 18 17 17 15
18 18 19 26 24 30 39 49 54 61 63 67 66 63 64 58 55 47 51 53 55 47 43 40 38 36 32 26 23 21 19 17 17
33 26 24 23 23 25 35 44 55 56 65 66 66 66 61 32 19 22 48 79 66 52 46 39 37 36 33 29 26 25 23 19 19
27 29 32 35 36 31 29 33 45 49 54 58 57 61 49 38 57 73 84 92 76 60 57 47 36 35 34 30 27 26 23 20 17
14 21 26 30 34 35 22 19 37 41 42 41 38 32 33 46 49 53 65 78 58 46 57 46 34 34 33 30 27 24 20 17 13
17 21 21 22 22 20 11 11 27 38 39 30 18 33 40 37 38 44 63 79 78 74 73 57 48 35 32 31 27 28 24 18 10
13 14 17 18 19 18 13 5 17 22 9 16 21 18 16 22 27 31 36 51 77 78 77 63 50 45 36 33 33 30 26 21 15
6 10 13 13 11 12 7 1 9 14 10 8 12 15 19 19 26 36 40 5 59 84 78 61 34 32 36 40 31 23 19 18 20
9 13 16 22 23 21 23 21 16 7 9 13 7 5 7 13 21 28 29 33 34 36 35 31 26 24 33 29 21 14 18 21 23
22 22 21 16 16 15 11 4 10 14 11 13 2 9 7 7 13 17 20 22 25 25 26 21 26 26 21 17 13 14 15 17 20
20 17 16 15 18 16 16 15 14 16 15 14 10 8 8 10 18 21 22 20 19 19 20 20 17 15 14 14 15 15 15 18 21
15 11 13 12 14 17 19 14 16 17 17 15 11 23 23 22 18 19 15 15 14 11 9 8 8 14 16 19 21 23 22 26 28
Wind_Direction_850mb
212 235 233 225 222 222 221 228 232 229 224 233 232 229 231 235 240 239 243 247 258 259 272 279 284 280 286 297 300 277 253 245 251
246 233 223 225 226 226 222 227 234 235 237 235 238 227 219 232 235 230 237 247 245 257 270 273 269 272 282 300 299 279 251 238 240
253 208 213 222 221 227 225 229 233 237 240 236 237 237 231 239 225 227 235 241 245 262 267 263 259 267 276 288 288 275 255 248 251
227 216 197 204 218 227 227 225 229 234 238 229 231 235 232 235 226 231 237 244 253 256 252 250 246 259 264 261 259 273 249 244 258
238 216 215 216 218 223 223 226 229 232 236 228 232 235 235 239 234 236 239 245 243 241 245 249 248 254 233 225 221 221 197 193 220
237 232 215 216 229 227 228 231 230 232 229 227 233 234 237 242 237 240 249 250 245 246 246 242 239 234 228 224 220 209 187 171 168
239 231 224 230 241 240 234 235 234 234 230 232 235 235 233 234 230 231 238 246 248 251 251 242 235 230 224 221 220 222 207 210 221
256 245 250 243 253 253 245 241 237 237 235 233 235 236 237 241 241 240 240 230 237 246 250 241 231 227 228 224 223 231 227 235 245
50 271 269 286 270 266 258 247 246 241 237 236 233 234 235 234 236 238 245 246 242 243 245 238 233 232 233 235 236 233 230 243 250
43 31 1 341 325 301 290 273 254 247 240 235 233 228 229 229 229 233 247 245 241 234 238 236 236 236 238 241 246 242 239 240 258
54 46 36 22 358 328 296 283 268 250 243 237 233 230 223 192 192 241 289 275 248 226 221 235 240 241 242 247 246 246 248 251 261
33 26 17 6 354 349 326 284 269 255 240 239 234 232 218 236 247 268 258 260 253 221 213 211 238 243 247 247 245 246 246 250 253
31 28 15 5 358 354 343 263 236 227 214 205 196 207 246 275 279 251 259 249 232 222 219 211 215 241 247 243 240 238 242 242 244
47 32 15 5 356 352 338 238 203 187 194 197 252 298 304 302 300 281 250 250 243 238 217 230 216 233 249 246 239 233 237 215 204
39 17 9 12 26 38 64 138 191 193 297 329 328 326 327 342 349 332 298 256 242 232 218 203 211 215 238 244 238 234 224 211 216
21 30 32 20 32 46 59 245 263 272 98 75 46 26 35 33 33 29 15 298 206 193 191 185 180 205 230 234 227 214 215 228 241
81 72 70 78 80 79 94 100 112 50 25 28 8 82 41 35 22 40 49 85 105 124 146 158 150 205 215 208 213 236 258 256 259
105 94 85 73 63 79 95 45 309 300 309 324 125 135 114 43 10 12 48 78 85 95 108 120 165 182 191 201 198 215 245 256 257
120 89 80 73 71 67 66 47 62 67 71 62 70 84 67 76 87 75 83 95 116 123 135 149 168 188 202 217 228 247 275 281 278
135 97 99 93 82 72 78 76 81 83 82 78 76 85 69 103 98 81 82 93 102 118 137 168 219 245 250 259 270 278 285 288 289